[[{"header":{"parameterUnit":"m.s-1","parameterCategory":2,"la1":30.2991,"la2":30.254,"lo1":-89.0895,"lo2":-89.0444,"dy":0.0017,"dx":0.0017,"nx":28,"ny":28,"refTime":"2024-05-14T09:00:00:Z","depth":"0","parameterNumber":2,"parameterNumberName":"U-component_of_CURRENTS"},"data":[0,0,0,0,0,0,0,0,0,0,0,0,0,0,0,0,0,0,0,0,0,0,0,0,0,0,0,0,0,0,0,0,0,0,0,0,0,0,0,0,0,0,0,0,0,0,0,0,0,0,0,0,0,0,0,0,0,0,0.4572,0.4566,0,0.4135,0.413,0.4126,0.3985,0.3986,0.3987,0.3988,0.3949,0.3947,0.3945,0,0,0,0,0,0,0,0,0,0,0,0,0,0.5016,0.5011,0.4572,0.4566,0.456,0.4136,0.413,0.4125,0.3985,0.3986,0.3987,0.3989,0.395,0.3947,0.3944,0,0,0,0,0,0,0,0,0,0,0,0,0,0.4734,0.5009,0.4573,0.4433,0.4415,0.4137,0.413,0.4124,0.3984,0.3986,0.3988,0.399,0.395,0.3947,0.3944,0.3887,0,0,0.3934,0.3933,0,0,0,0,0,0,0,0,0.4751,0.4719,0.4459,0.4442,0.4421,0.4109,0.4271,0.4062,0.3984,0.4156,0.3988,0.399,0.4033,0.4023,0.3942,0.3886,0.3884,0.3934,0.3932,0.393,0.3929,0,0,0,0,0,0,0,0.4771,0.4735,0.4407,0.4452,0.4429,0.4298,0.4264,0.4228,0.4104,0.4141,0.4128,0.4066,0.4027,0.3945,0.3942,0.3883,0.3934,0.3931,0.3929,0.3928,0.3874,0.3874,0,0,0,0,0,0,0.4819,0.4755,0.4421,0.4393,0.4585,0.4289,0.4251,0.4214,0.4095,0.4072,0.4065,0.4061,0.395,0.3945,0.394,0.3936,0.393,0.3927,0.3925,0.3873,0.3874,0.3875,0,0,0,0,0,0,0.4831,0.4795,0.4438,0.4556,0.4501,0.4281,0.424,0.4204,0.411,0.403,0.4018,0.4006,0.3951,0.3945,0.3916,0.3933,0.3926,0.3923,0.3873,0.3874,0.3874,0.3887,0,0,0,0,0,0,0.4846,0.4803,0.4782,0.4561,0.4496,0.4245,0.4236,0.4194,0.4066,0.4056,0.3977,0.3974,0.3952,0.3921,0.3913,0.3928,0.392,0.3872,0.3873,0.3874,0.3886,0.3888,0.389,0,0,0,0,0,0.4864,0.4798,0.4785,0.4742,0.448,0.4241,0.4194,0.405,0.4062,0.3984,0.3975,0.3976,0.3924,0.3917,0.3908,0.3923,0.3872,0.3873,0.3874,0.3885,0.3887,0.389,0,0,0,0,0,0,0.4909,0.477,0.4752,0.4632,0.4452,0.4214,0.4109,0.4044,0.396,0.3981,0.3958,0.3951,0.3943,0.3926,0.392,0.3914,0.3907,0.3906,0.3919,0.3921,0.3923,0.3948,0.3918,0,0,0,0,0,0.4933,0.4896,0.4696,0.4596,0.4512,0.4328,0.4216,0.4123,0.4012,0.3971,0.3938,0.3932,0.3934,0.3923,0.3905,0.3878,0.3907,0.3892,0.3894,0.3896,0.3912,0.3969,0.3979,0.3879,0.3879,0.3878,0,0,0.4916,0.4835,0.4806,0.4611,0.4469,0.4321,0.4265,0.408,0.4015,0.3992,0.3931,0.3931,0.3931,0.3913,0.3909,0.3901,0.3937,0.3897,0.3899,0.3914,0.3972,0.3982,0.399,0.3879,0.3879,0.3879,0,0,0.479,0.4797,0.4681,0.4571,0.4367,0.429,0.4248,0.4038,0.4007,0.3929,0.3944,0.3956,0.3902,0.3921,0.3928,0.3931,0.395,0.3927,0.3947,0.4002,0.4012,0.402,0.4061,0.4073,0.3923,0.3923,0.3923,0,0.477,0.4631,0.459,0.4437,0.4372,0.4292,0.4149,0.4089,0.392,0.3942,0.3922,0.3926,0.3917,0.3959,0.3958,0.3939,0.3965,0.3935,0.4007,0.4016,0.4024,0.4064,0.4078,0.3924,0.3923,0.3923,0.3923,0,0.4521,0.4447,0.4362,0.4236,0.416,0.4029,0.3973,0.3948,0.396,0.3922,0.3956,0.3943,0.3959,0.396,0.3952,0.4017,0.4013,0.4007,0.4002,0.4035,0.4075,0.4088,0.3925,0.3924,0.3924,0.3924,0,0,0.4416,0.4234,0.4223,0.4174,0.4081,0.3989,0.3986,0.3947,0.3987,0.3927,0.3968,0.398,0.4006,0.4019,0.4027,0.4065,0.4136,0.4055,0.4057,0.4099,0.4252,0.4238,0.4251,0.4139,0.4142,0.4144,0.4253,0,0.4238,0.4,0.3985,0.3856,0.3746,0.3818,0.3835,0.3848,0.3902,0.3939,0.4004,0.4029,0.4023,0.4041,0.4085,0.4133,0.4174,0.4107,0.4211,0.4215,0.4202,0.4268,0.4146,0.4233,0.4266,0.4268,0.427,0,0.3971,0.3908,0.3726,0.3743,0.3712,0.3677,0.3814,0.3806,0.3915,0.3957,0.4031,0.4073,0.4151,0.4124,0.4246,0.4202,0.4231,0.4257,0.4262,0.4259,0.4227,0.4207,0.4256,0.4131,0.4291,0.4289,0.4288,0,0.3882,0.3741,0.3651,0.3633,0.3616,0.3648,0.3698,0.3811,0.3874,0.3981,0.4046,0.4133,0.42,0.4253,0.4328,0.4288,0.4453,0.4407,0.4424,0.4423,0.4348,0.4336,0.4294,0.449,0.4489,0.4489,0.4489,0,0.3691,0.3619,0.3613,0.3562,0.3581,0.3603,0.3666,0.374,0.3864,0.3948,0.4052,0.4142,0.4238,0.4346,0.4367,0.4463,0.4498,0.4456,0.4464,0.4347,0.4334,0.4244,0.4196,0.4493,0.4492,0.4492,0.4491,0,0.3515,0.3478,0.3409,0.3463,0.3489,0.3516,0.3637,0.3691,0.3828,0.3949,0.3988,0.418,0.433,0.4428,0.454,0.4539,0.448,0.4615,0.4469,0.4458,0.4323,0.4282,0.4111,0.3991,0.4643,0.4644,0.4644,0,0.3351,0.3294,0.3366,0.3381,0.3394,0.3456,0.3502,0.3642,0.3722,0.397,0.4025,0.4234,0.4365,0.4558,0.4598,0.4667,0.4506,0.4571,0.4472,0.4326,0.4286,0.4073,0.3968,0.4373,0.4371,0.4369,0.4368,0,0.3165,0.3224,0.3229,0.3274,0.3315,0.3363,0.3453,0.3512,0.3699,0.3835,0.4026,0.4158,0.4399,0.445,0.4574,0.4587,0.4347,0.4542,0.4429,0.4117,0.3845,0.3729,0.4283,0.4355,0.4356,0.4357,0.4358,0.4358,0.3087,0.3093,0.3145,0.3172,0.3215,0.3252,0.3257,0.3387,0.3506,0.3682,0.3911,0.4063,0.4268,0.4443,0.442,0.4327,0.4274,0.4204,0.4183,0.3991,0.3812,0.4341,0.4396,0.4397,0.4399,0.44,0.4401,0,0.2987,0.3015,0.3039,0.3066,0.3054,0.3124,0.3199,0.3195,0.3278,0.3507,0.3672,0.3902,0.3993,0.4093,0.4138,0.3995,0.3765,0.3873,0.3539,0.3468,0.3991,0.3917,0.3822,0.3822,0.3822,0.3822,0.3822,0.3823,0.294,0.293,0.2945,0.2891,0.2902,0.2852,0.2862,0.2897,0.3015,0.3159,0.3291,0.3484,0.3753,0.3881,0.3777,0.3691,0.338,0.3236,0.319,0.3575,0.3602,0.3627,0.3544,0.3372,0.3371,0.2503,0.2497,0.2493]},{"header":{"parameterUnit":"m.s-1","parameterCategory":2,"la1":30.2991,"la2":30.254,"lo1":-89.0895,"lo2":-89.0444,"dy":0.0017,"dx":0.0017,"nx":28,"ny":28,"refTime":"2024-05-14T09:00:00:Z","depth":"0","parameterNumber":3,"parameterNumberName":"V-component_of_CURRENTS"},"data":[0,0,0,0,0,0,0,0,0,0,0,0,0,0,0,0,0,0,0,0,0,0,0,0,0,0,0,0,0,0,0,0,0,0,0,0,0,0,0,0,0,0,0,0,0,0,0,0,0,0,0,0,0,0,0,0,0,0,0.0086,0.0086,0,0.0041,0.004,0.0039,0.0005,0.0005,0.0006,0.0006,-0.0054,-0.0056,-0.0058,0,0,0,0,0,0,0,0,0,0,0,0,0,0.0023,0.0025,0.0086,0.0086,0.0087,0.0041,0.004,0.0038,0.0005,0.0005,0.0006,0.0006,-0.0054,-0.0056,-0.0058,0,0,0,0,0,0,0,0,0,0,0,0,0,0.0015,0.0025,0.0086,0.007,0.0069,0.0041,0.004,0.0038,0.0005,0.0005,0.0006,0.0007,-0.0053,-0.0056,-0.0059,-0.0089,0,0,-0.0068,-0.0069,0,0,0,0,0,0,0,0,0.0015,0.0016,0.0072,0.0071,0.007,0.0036,-0.0004,-0.0003,0.0005,0.0021,0.0006,0.0007,-0.0021,-0.0026,-0.0047,-0.0092,-0.0095,-0.0068,-0.007,-0.0071,-0.0072,0,0,0,0,0,0,0,0.0016,0.0017,0.006,0.0073,0.0071,0.0024,0.0024,-0.0005,-0.0009,0.0019,0.0019,0.0026,-0.0023,-0.0044,-0.0049,-0.0096,-0.0068,-0.0071,-0.0072,-0.0074,-0.012,-0.012,0,0,0,0,0,0,0.0043,0.0019,0.0062,0.006,0.0052,0.0026,0.0025,0.004,-0.0009,-0.0013,0.0025,0.0025,-0.004,-0.0045,-0.0051,-0.0036,-0.0071,-0.0074,-0.0076,-0.0121,-0.012,-0.0119,0,0,0,0,0,0,0.0042,0.0048,0.0064,0.0043,0.0043,0.0028,0.0044,0.0039,0.0027,-0.0002,-0.0009,0.0021,-0.0039,-0.0047,-0.006,-0.004,-0.0075,-0.0078,-0.0121,-0.012,-0.012,-0.0041,0,0,0,0,0,0,0.004,0.0048,0.0052,0.0046,0.0046,0.0059,0.0044,0.0038,0.0034,0.0032,-0.0008,-0.0014,-0.0039,-0.0055,-0.0063,-0.0045,-0.008,-0.0122,-0.0121,-0.012,-0.0044,-0.0037,-0.0032,0,0,0,0,0,0.0038,0.006,0.0053,0.0058,0.0059,0.006,0.0054,0.0039,0.0033,0.0029,0.0009,-0.0012,-0.0054,-0.0057,-0.0067,-0.0049,-0.0122,-0.0121,-0.012,-0.0047,-0.0039,-0.0032,0,0,0,0,0,0,0.0038,0.0059,0.0051,0.0078,0.0072,0.0058,0.0061,0.0045,0.0022,0.0025,-0.001,-0.0017,-0.0021,-0.0049,-0.0052,-0.006,-0.009,-0.0091,-0.0032,-0.0024,-0.0018,0.0006,-0.0083,0,0,0,0,0,0.0041,0.0058,0.0065,0.0081,0.009,0.0071,0.0067,0.0057,0.0046,0.0036,0.001,-0.0013,-0.0027,-0.0035,-0.0058,-0.0067,-0.0094,-0.0061,-0.0055,-0.0049,-0.0036,-0.0061,-0.0055,-0.0115,-0.0115,-0.0115,0,0,0.0043,0.0059,0.0066,0.0081,0.0079,0.0097,0.0069,0.0077,0.0087,0.0033,0.0035,0.0005,-0.0025,-0.0028,-0.0032,-0.0046,-0.0047,-0.0048,-0.0042,-0.0032,-0.0059,-0.0053,-0.0048,-0.0114,-0.0115,-0.0115,0,0,0.0072,0.0078,0.0106,0.0108,0.0119,0.0113,0.0122,0.0112,0.0106,0.0099,0.0073,0.0057,0.0025,0.0012,0.0002,0.0026,-0.0014,0.0018,0.007,0.0046,0.0051,0.0055,0.0027,0.0028,0.0022,0.0023,0.0023,0,0.0072,0.0117,0.011,0.014,0.0158,0.0131,0.0168,0.0153,0.0133,0.0143,0.0115,0.0082,0.0048,0.006,0.0068,0.0042,0.002,0.0047,0.0056,0.0059,0.0062,0.0032,0.0032,0.0027,0.0026,0.0026,0.0025,0,0.0133,0.0156,0.0179,0.0213,0.0221,0.0248,0.0246,0.0245,0.0234,0.0221,0.0222,0.0167,0.0154,0.0136,0.0108,0.0119,0.0094,0.0067,0.0041,0.0073,0.0039,0.0038,0.0032,0.0031,0.003,0.0029,0,0,0.0178,0.0215,0.0224,0.0254,0.0268,0.0293,0.0314,0.034,0.0375,0.0324,0.0357,0.0309,0.0276,0.0262,0.0217,0.0189,0.0178,0.0143,0.0139,0.0122,0.0125,0.0103,0.0099,0.0154,0.0154,0.0155,0.0093,0,0.0233,0.0306,0.0309,0.0375,0.0419,0.0407,0.044,0.0449,0.0443,0.0457,0.0399,0.0399,0.0327,0.032,0.0283,0.0211,0.0179,0.0198,0.009,0.0087,0.0069,0.0098,0.015,0.01,0.0091,0.0091,0.0091,0,0.0302,0.0348,0.0426,0.0482,0.0506,0.0534,0.0601,0.0624,0.0626,0.0618,0.0593,0.0538,0.0496,0.042,0.0314,0.0331,0.024,0.0169,0.0164,0.0118,0.0063,0.0065,0.0097,-0.0078,0.0088,0.0088,0.0089,0,0.0361,0.043,0.0503,0.052,0.0578,0.0618,0.0653,0.0678,0.0727,0.0716,0.074,0.0662,0.0641,0.0515,0.036,0.034,0.0235,0.0187,0.0079,0.0076,0.0087,0.0085,-0.0054,0.0111,0.0111,0.0111,0.0112,0,0.0425,0.0481,0.0539,0.0579,0.0688,0.0696,0.0802,0.0817,0.0855,0.0936,0.0831,0.0864,0.0665,0.0574,0.0409,0.0251,0.0272,0.01,0.0065,0.0115,0.0116,-0.0065,-0.017,0.0109,0.0109,0.011,0.011,0,0.0471,0.05,0.0595,0.0679,0.0716,0.0797,0.0904,0.0976,0.0995,0.1092,0.1092,0.1024,0.0914,0.0703,0.0504,0.0339,0.0075,0.01,0.0168,0.0142,-0.013,-0.0231,-0.04,-0.0469,-0.0026,-0.0026,-0.0027,0,0.0496,0.0553,0.0677,0.0747,0.079,0.0905,0.0989,0.1044,0.1127,0.1206,0.1263,0.1179,0.1166,0.0854,0.054,0.0252,0.007,0.0082,0.0046,-0.0129,-0.0268,-0.0339,-0.039,0.0087,0.0088,0.0088,0.0088,0,0.0565,0.0611,0.0694,0.0838,0.0941,0.1072,0.1193,0.1282,0.1369,0.1456,0.1553,0.1546,0.1271,0.1012,0.0596,0.0379,-0.0024,0.0077,-0.0113,-0.0194,-0.0269,-0.0356,0.0098,0.009,0.009,0.009,0.009,0.009,0.0622,0.0696,0.0807,0.0945,0.1069,0.1227,0.1346,0.1484,0.1648,0.1817,0.1789,0.1853,0.1459,0.0915,0.0573,-0.0,-0.0018,-0.0164,-0.0273,-0.033,-0.0395,0.0058,0.0013,0.0013,0.0012,0.0012,0.0011,0,0.0696,0.0779,0.0906,0.1073,0.1213,0.127,0.1478,0.1612,0.1826,0.2007,0.2113,0.2003,0.1495,0.0947,0.0171,-0.0258,-0.0405,-0.0498,-0.0584,-0.0621,-0.0216,-0.0208,-0.029,-0.029,-0.029,-0.029,-0.029,-0.029,0.0741,0.0868,0.0932,0.1168,0.1285,0.1489,0.1617,0.1827,0.2007,0.2255,0.2355,0.2395,0.2002,0.0587,-0.0382,-0.0619,-0.0896,-0.096,-0.1127,-0.0857,-0.0834,-0.0812,-0.083,-0.1041,-0.1042,-0.1443,-0.1447,-0.145]}],[{"header":{"parameterUnit":"m.s-1","parameterCategory":2,"la1":30.2991,"la2":30.254,"lo1":-89.0895,"lo2":-89.0444,"dy":0.0017,"dx":0.0017,"nx":28,"ny":28,"refTime":"2024-05-14T09:00:00:Z","depth":"2","parameterNumber":2,"parameterNumberName":"U-component_of_CURRENTS"},"data":[0,0,0,0,0,0,0,0,0,0,0,0,0,0,0,0,0,0,0,0,0,0,0,0,0,0,0,0,0,0,0,0,0,0,0,0,0,0,0,0,0,0,0,0,0,0,0,0,0,0,0,0,0,0,0,0,0,0,0.3326,0.3327,0,0.3375,0.3375,0.3375,0.3391,0.3392,0.3392,0.3393,0.3368,0.3366,0.3365,0,0,0,0,0,0,0,0,0,0,0,0,0,0.3325,0.3324,0.3326,0.3327,0.3329,0.3375,0.3375,0.3375,0.3391,0.3392,0.3392,0.3393,0.3368,0.3366,0.3365,0,0,0,0,0,0,0,0,0,0,0,0,0,0.3335,0.3323,0.3325,0.335,0.3353,0.3375,0.3375,0.3375,0.3391,0.3392,0.3393,0.3394,0.3369,0.3367,0.3365,0.333,0,0,0.3358,0.3357,0,0,0,0,0,0,0,0,0.3334,0.3334,0.3345,0.3348,0.3352,0.3387,0.3366,0.336,0.339,0.3366,0.3393,0.3394,0.3373,0.3371,0.3364,0.3329,0.3328,0.3358,0.3357,0.3356,0.3356,0,0,0,0,0,0,0,0.3334,0.3332,0.3335,0.3347,0.3351,0.3387,0.3388,0.3365,0.3353,0.3368,0.3372,0.3393,0.3373,0.3366,0.3364,0.3328,0.3358,0.3356,0.3355,0.3354,0.3345,0.3346,0,0,0,0,0,0,0.3342,0.3331,0.3334,0.3337,0.3358,0.3386,0.3387,0.3366,0.3355,0.3358,0.3392,0.3394,0.3369,0.3366,0.3363,0.3382,0.3356,0.3354,0.3353,0.3344,0.3345,0.3347,0,0,0,0,0,0,0.3341,0.334,0.3332,0.3347,0.3349,0.3386,0.3363,0.3367,0.3377,0.3377,0.3376,0.3401,0.337,0.3366,0.3358,0.3379,0.3353,0.3351,0.3343,0.3345,0.3346,0.3382,0,0,0,0,0,0,0.334,0.3338,0.3328,0.3345,0.3349,0.3348,0.3363,0.3368,0.3393,0.3395,0.3383,0.3382,0.337,0.3361,0.3356,0.3376,0.335,0.3342,0.3344,0.3346,0.338,0.3385,0.3389,0,0,0,0,0,0.3339,0.332,0.3326,0.3328,0.3331,0.3349,0.3352,0.3377,0.3392,0.339,0.3391,0.3383,0.337,0.3359,0.3353,0.3373,0.3341,0.3343,0.3345,0.3378,0.3384,0.3389,0,0,0,0,0,0,0.3294,0.3322,0.3328,0.3311,0.3334,0.3356,0.3372,0.3383,0.3381,0.3391,0.3379,0.3377,0.3387,0.337,0.3359,0.3379,0.336,0.3361,0.3387,0.3392,0.3397,0.3414,0.3348,0,0,0,0,0,0.3285,0.3288,0.3313,0.3301,0.332,0.3346,0.3361,0.3375,0.3384,0.3386,0.3376,0.3378,0.3387,0.3382,0.3379,0.3371,0.3386,0.3386,0.3391,0.3395,0.3406,0.3452,0.3462,0.3354,0.3354,0.3354,0,0,0.3269,0.3284,0.3286,0.3296,0.3322,0.3336,0.3355,0.3382,0.3393,0.3381,0.3384,0.339,0.339,0.3397,0.34,0.3386,0.3433,0.3398,0.3401,0.341,0.3455,0.3466,0.3475,0.3355,0.3355,0.3355,0,0,0.3245,0.3251,0.3255,0.3276,0.3322,0.334,0.3351,0.3375,0.339,0.3391,0.3405,0.3424,0.3406,0.3425,0.3432,0.3457,0.3462,0.3457,0.3485,0.3529,0.3538,0.3547,0.3578,0.3589,0.3453,0.3453,0.3453,0,0.3235,0.3222,0.3258,0.327,0.3298,0.3342,0.3354,0.3372,0.3384,0.3406,0.3397,0.3431,0.3426,0.3469,0.3482,0.3469,0.349,0.3461,0.3535,0.3544,0.3552,0.3583,0.3595,0.3455,0.3455,0.3455,0.3455,0,0.3206,0.3213,0.3224,0.3253,0.3281,0.3302,0.3348,0.3371,0.3398,0.3417,0.3464,0.3467,0.3494,0.3499,0.3494,0.3557,0.3553,0.3541,0.3522,0.3566,0.3595,0.3606,0.3458,0.3457,0.3457,0.3456,0,0,0.3151,0.3198,0.3205,0.322,0.328,0.3295,0.3344,0.3395,0.3439,0.3454,0.3503,0.3531,0.3555,0.3566,0.3576,0.3607,0.3678,0.3599,0.36,0.3631,0.3775,0.3734,0.3743,0.3682,0.3684,0.3686,0.3772,0,0.3128,0.3143,0.3177,0.32,0.3217,0.3288,0.3326,0.3383,0.3439,0.349,0.3539,0.3579,0.3575,0.3599,0.3637,0.3678,0.3711,0.3656,0.3727,0.3729,0.3689,0.3756,0.3455,0.3504,0.3783,0.3785,0.3786,0,0.3084,0.3109,0.3126,0.3187,0.3205,0.3226,0.3327,0.3368,0.3472,0.3516,0.3589,0.3628,0.3703,0.3678,0.3782,0.3749,0.3769,0.3787,0.379,0.3749,0.3711,0.3506,0.3514,0.3806,0.3804,0.3803,0.3801,0,0.3021,0.3069,0.3085,0.3103,0.3178,0.3212,0.3266,0.3374,0.3435,0.3545,0.3607,0.369,0.3752,0.3797,0.3855,0.3825,0.3956,0.3915,0.3896,0.3892,0.365,0.3621,0.3979,0.3979,0.3979,0.3979,0.3979,0,0.297,0.2979,0.3056,0.3059,0.3098,0.3173,0.324,0.3314,0.3436,0.3514,0.3619,0.3698,0.3788,0.3876,0.3891,0.3949,0.3994,0.3923,0.3922,0.3653,0.3626,0.3893,0.3881,0.3982,0.3981,0.3981,0.398,0,0.2881,0.293,0.2949,0.3033,0.3061,0.3092,0.3214,0.3268,0.3405,0.3518,0.3558,0.3732,0.3854,0.3936,0.4025,0.4008,0.4047,0.4045,0.3726,0.3686,0.3938,0.3928,0.4031,0.4031,0.403,0.403,0.403,0,0.2825,0.2829,0.2913,0.2934,0.2968,0.3036,0.3084,0.3224,0.3299,0.3529,0.3575,0.3755,0.385,0.3993,0.3992,0.4027,0.4075,0.3756,0.3643,0.3961,0.3949,0.3939,0.393,0.3329,0.3323,0.3318,0.3314,0,0.2731,0.2772,0.2798,0.2848,0.2891,0.2941,0.3031,0.3085,0.3265,0.3382,0.3537,0.3635,0.3806,0.3723,0.3799,0.3768,0.3727,0.366,0.4079,0.3375,0.3308,0.3294,0.3306,0.327,0.3274,0.3277,0.328,0.3282,0.2661,0.2666,0.2716,0.2747,0.2793,0.2825,0.2827,0.2944,0.3042,0.3176,0.337,0.342,0.3496,0.3466,0.3379,0.3314,0.3568,0.3388,0.3398,0.3414,0.3331,0.3268,0.3206,0.321,0.3213,0.3216,0.3219,0,0.2565,0.2587,0.2612,0.2637,0.2625,0.2701,0.2764,0.2745,0.2795,0.2954,0.3061,0.2895,0.2879,0.2934,0.2781,0.281,0.2727,0.2682,0.2531,0.2581,0.2623,0.2492,0.2149,0.2145,0.2141,0.2137,0,0,0.2517,0.2499,0.251,0.2454,0.247,0.2418,0.2421,0.2425,0.2488,0.2497,0.2509,0.2755,0.2868,0.2469,0.244,0.2253,0.238,0.2165,0.3037,0.291,0.2946,0.3064,0.2925,0,0,0,0,0]},{"header":{"parameterUnit":"m.s-1","parameterCategory":2,"la1":30.2991,"la2":30.254,"lo1":-89.0895,"lo2":-89.0444,"dy":0.0017,"dx":0.0017,"nx":28,"ny":28,"refTime":"2024-05-14T09:00:00:Z","depth":"2","parameterNumber":3,"parameterNumberName":"V-component_of_CURRENTS"},"data":[0,0,0,0,0,0,0,0,0,0,0,0,0,0,0,0,0,0,0,0,0,0,0,0,0,0,0,0,0,0,0,0,0,0,0,0,0,0,0,0,0,0,0,0,0,0,0,0,0,0,0,0,0,0,0,0,0,0,0.0258,0.0257,0,0.0127,0.0125,0.0123,0.0071,0.0071,0.0072,0.0072,0.0017,0.0015,0.0013,0,0,0,0,0,0,0,0,0,0,0,0,0,0.031,0.031,0.0258,0.0256,0.0255,0.0127,0.0125,0.0123,0.0071,0.0071,0.0072,0.0072,0.0018,0.0015,0.0013,0,0,0,0,0,0,0,0,0,0,0,0,0,0.0243,0.031,0.0258,0.0214,0.0209,0.0127,0.0125,0.0122,0.0071,0.0071,0.0072,0.0073,0.0018,0.0016,0.0013,-0.0018,0,0,0.0004,0.0003,0,0,0,0,0,0,0,0,0.0247,0.0241,0.0222,0.0217,0.0211,0.0117,0.0123,0.008,0.007,0.0122,0.0072,0.0073,0.0058,0.0052,0.0023,-0.002,-0.0022,0.0004,0.0002,0.0001,0.0,0,0,0,0,0,0,0,0.0252,0.0245,0.0205,0.0221,0.0214,0.0148,0.0141,0.0113,0.0088,0.0117,0.0114,0.0101,0.0055,0.0025,0.0021,-0.0023,0.0004,0.0002,-0.0,-0.0001,-0.005,-0.005,0,0,0,0,0,0,0.0278,0.0251,0.0209,0.0201,0.0232,0.0148,0.0139,0.0145,0.0087,0.0078,0.01,0.0099,0.003,0.0025,0.0019,0.0028,0.0001,-0.0001,-0.0003,-0.005,-0.005,-0.005,0,0,0,0,0,0,0.028,0.0276,0.0214,0.0222,0.021,0.0148,0.0154,0.0143,0.0116,0.0073,0.0066,0.0087,0.003,0.0023,0.0009,0.0024,-0.0003,-0.0005,-0.0051,-0.005,-0.005,0.0015,0,0,0,0,0,0,0.0282,0.0278,0.0284,0.0225,0.0211,0.0171,0.0153,0.014,0.0108,0.0104,0.0059,0.0054,0.003,0.0013,0.0006,0.002,-0.0007,-0.0051,-0.0051,-0.005,0.0012,0.0017,0.0022,0,0,0,0,0,0.0285,0.0291,0.0286,0.028,0.0225,0.0171,0.0157,0.0113,0.0107,0.0092,0.0074,0.0056,0.0013,0.0011,0.0003,0.0016,-0.0052,-0.0051,-0.005,0.001,0.0016,0.0022,0,0,0,0,0,0,0.0312,0.0285,0.0278,0.0275,0.0231,0.0163,0.0141,0.0116,0.0084,0.0089,0.0055,0.0049,0.0042,0.0017,0.0016,0.0003,-0.0021,-0.0022,0.0028,0.0033,0.0038,0.0059,-0.001,0,0,0,0,0,0.0325,0.0326,0.0282,0.0277,0.026,0.0203,0.0174,0.0148,0.0113,0.0098,0.0071,0.0049,0.0035,0.0027,0.0004,-0.0007,-0.0033,-0.0003,0.0002,0.0006,0.0017,-0.001,-0.0006,-0.0047,-0.0047,-0.0047,0,0,0.0334,0.0317,0.0318,0.0283,0.0245,0.0227,0.0187,0.015,0.0147,0.0099,0.009,0.0063,0.0036,0.0028,0.0023,0.0012,0.0003,0.0007,0.0011,0.002,-0.0008,-0.0004,-0.0001,-0.0046,-0.0046,-0.0046,0,0,0.0339,0.034,0.0334,0.0308,0.0262,0.0237,0.0233,0.0176,0.0164,0.0146,0.0122,0.0106,0.0072,0.0059,0.005,0.0066,0.0029,0.0058,0.0101,0.0075,0.0078,0.0081,0.005,0.0049,0.0062,0.0062,0.0062,0,0.035,0.0351,0.032,0.0305,0.03,0.0252,0.0252,0.0225,0.0175,0.0181,0.0157,0.012,0.009,0.0096,0.0102,0.0079,0.0055,0.0083,0.0082,0.0084,0.0086,0.0054,0.0052,0.0065,0.0065,0.0065,0.0064,0,0.0346,0.0351,0.0344,0.0333,0.0319,0.0309,0.0285,0.0277,0.0264,0.0243,0.0239,0.0189,0.0173,0.0157,0.0134,0.0137,0.0113,0.0091,0.0071,0.0094,0.0058,0.0056,0.007,0.0069,0.0068,0.0067,0,0,0.0366,0.0351,0.035,0.0369,0.0345,0.0342,0.035,0.0352,0.0379,0.0324,0.0346,0.0302,0.0273,0.026,0.0221,0.0192,0.0174,0.0152,0.0149,0.0128,0.0113,0.0085,0.0079,0.0152,0.0152,0.0152,0.0082,0,0.0377,0.0386,0.0374,0.0405,0.0418,0.0408,0.0432,0.0431,0.0424,0.043,0.038,0.0377,0.0314,0.0308,0.0271,0.0205,0.0171,0.0195,0.0088,0.0085,0.0062,0.0076,0.0113,0.0053,0.0079,0.0079,0.0079,0,0.0375,0.0396,0.0429,0.0481,0.0488,0.0505,0.0564,0.0577,0.0574,0.0567,0.0541,0.0493,0.0451,0.0387,0.0282,0.0301,0.0217,0.0152,0.0147,0.0099,0.0053,0.0033,0.0047,0.0073,0.0074,0.0074,0.0075,0,0.0415,0.0439,0.0487,0.0497,0.0538,0.0572,0.0602,0.0622,0.0664,0.0651,0.0671,0.0595,0.0574,0.0456,0.0314,0.0301,0.019,0.0153,0.0045,0.0041,0.0041,0.0038,0.0076,0.0076,0.0076,0.0076,0.0076,0,0.0437,0.0474,0.0515,0.0543,0.0636,0.0638,0.073,0.0743,0.0774,0.0844,0.0749,0.0773,0.0592,0.0502,0.0352,0.0197,0.0217,0.0058,0.0025,0.0063,0.0063,0.0056,0.0055,0.0073,0.0074,0.0074,0.0075,0,0.0461,0.0475,0.0548,0.0619,0.0653,0.0723,0.0822,0.0885,0.09,0.0982,0.0982,0.0911,0.0798,0.0604,0.0415,0.0265,0.0102,0.0038,0.009,0.0064,-0.0042,-0.0039,-0.0088,-0.0089,-0.009,-0.0091,-0.0092,0,0.0467,0.0508,0.0619,0.0681,0.0717,0.082,0.0898,0.0946,0.102,0.108,0.1128,0.1037,0.1005,0.0703,0.0418,0.0148,0.0104,-0.0013,-0.0038,-0.0029,-0.0056,-0.0052,-0.0047,-0.0018,-0.0018,-0.0018,-0.0018,0,0.0512,0.0555,0.0627,0.0759,0.0853,0.0972,0.1082,0.116,0.1235,0.1299,0.1368,0.1342,0.1071,0.0803,0.0416,0.0231,0.0028,-0.0026,-0.0019,0.0018,0.0031,0.0006,0.0009,-0.002,-0.0019,-0.0019,-0.0019,-0.0019,0.056,0.0625,0.0727,0.0853,0.0967,0.1111,0.1217,0.1333,0.1468,0.1586,0.1547,0.1521,0.1211,0.0729,0.0385,0.0016,0.0039,-0.0094,-0.0091,-0.0089,-0.0068,-0.0058,-0.0122,-0.0122,-0.0122,-0.0123,-0.0123,0,0.0624,0.0699,0.0814,0.0968,0.1096,0.1151,0.1336,0.1444,0.1612,0.171,0.1765,0.1471,0.1163,0.079,0.0253,-0.0065,-0.0083,-0.0175,-0.0125,-0.012,-0.0117,-0.0097,-0.0159,-0.016,-0.0161,-0.0162,0,0,0.0663,0.0778,0.0837,0.1051,0.116,0.1346,0.1458,0.1616,0.1726,0.1826,0.1813,0.1761,0.13,0.09,0.0468,0.0152,0.009,0.009,0.0158,0.0276,0.0283,-0.0026,0.0015,0,0,0,0,0]}],[{"header":{"parameterUnit":"m.s-1","parameterCategory":2,"la1":30.2991,"la2":30.254,"lo1":-89.0895,"lo2":-89.0444,"dy":0.0017,"dx":0.0017,"nx":28,"ny":28,"refTime":"2024-05-14T09:00:00:Z","depth":"4","parameterNumber":2,"parameterNumberName":"U-component_of_CURRENTS"},"data":[0,0,0,0,0,0,0,0,0,0,0,0,0,0,0,0,0,0,0,0,0,0,0,0,0,0,0,0,0,0,0,0,0,0,0,0,0,0,0,0,0,0,0,0,0,0,0,0,0,0,0,0,0,0,0,0,0,0,0.2142,0.2145,0,0.2307,0.2308,0.2309,0.2414,0.2415,0.2417,0.2418,0.2482,0.2483,0.2483,0,0,0,0,0,0,0,0,0,0,0,0,0,0.1929,0.1931,0.2142,0.2145,0.2148,0.2306,0.2308,0.2309,0.2414,0.2415,0.2417,0.2419,0.2482,0.2483,0.2483,0,0,0,0,0,0,0,0,0,0,0,0,0,0.2042,0.1932,0.2142,0.2225,0.2235,0.2306,0.2308,0.231,0.2413,0.2416,0.2418,0.2419,0.2482,0.2483,0.2483,0.2446,0,0,0.2485,0.2486,0,0,0,0,0,0,0,0,0.2036,0.2049,0.221,0.2219,0.223,0.2349,0.2257,0.2353,0.2413,0.2337,0.2418,0.242,0.2432,0.2437,0.2453,0.2449,0.2452,0.2485,0.2486,0.2486,0.2486,0,0,0,0,0,0,0,0.2028,0.2043,0.2199,0.2213,0.2225,0.2258,0.2275,0.2275,0.2363,0.2344,0.2354,0.2384,0.2436,0.2452,0.2455,0.2453,0.2485,0.2486,0.2486,0.2487,0.2568,0.2569,0,0,0,0,0,0,0.2021,0.2035,0.2194,0.2205,0.2145,0.2261,0.228,0.2302,0.2365,0.238,0.2382,0.2389,0.245,0.2455,0.2458,0.2547,0.2486,0.2487,0.2487,0.2566,0.2568,0.257,0,0,0,0,0,0,0.2016,0.2033,0.2187,0.213,0.2154,0.2263,0.2287,0.2305,0.2376,0.2397,0.2409,0.2443,0.2452,0.2457,0.2505,0.2546,0.2487,0.2488,0.2564,0.2567,0.2569,0.2642,0,0,0,0,0,0,0.2008,0.203,0.206,0.213,0.2157,0.226,0.2286,0.2307,0.2392,0.2403,0.2451,0.2457,0.2454,0.2504,0.2505,0.2545,0.2488,0.2562,0.2565,0.2568,0.2638,0.2647,0.2655,0,0,0,0,0,0.2,0.2033,0.206,0.2082,0.2189,0.2262,0.2279,0.2357,0.2393,0.2427,0.2465,0.2458,0.2526,0.2506,0.2507,0.2548,0.256,0.2564,0.2568,0.2634,0.2645,0.2655,0,0,0,0,0,0,0.1967,0.2049,0.2081,0.2141,0.2211,0.2284,0.2341,0.2382,0.244,0.2466,0.2474,0.2482,0.2542,0.2531,0.2509,0.2582,0.2544,0.2548,0.2593,0.2604,0.2613,0.2617,0.2489,0,0,0,0,0,0.1969,0.2014,0.2094,0.2148,0.2191,0.227,0.2319,0.2371,0.2428,0.246,0.2488,0.252,0.2549,0.2568,0.2587,0.2617,0.2615,0.2647,0.2656,0.2663,0.2668,0.2703,0.2715,0.2583,0.2583,0.2583,0,0,0.1971,0.2027,0.2054,0.2144,0.2212,0.2271,0.2305,0.2398,0.2447,0.2451,0.2529,0.2554,0.2566,0.2613,0.2638,0.2615,0.2701,0.2668,0.2674,0.2676,0.2708,0.2721,0.2733,0.2586,0.2585,0.2585,0,0,0.1995,0.2054,0.2101,0.2158,0.2268,0.231,0.2345,0.2436,0.2487,0.255,0.2575,0.2628,0.2661,0.2685,0.2696,0.276,0.275,0.2774,0.2818,0.2852,0.2863,0.2872,0.289,0.2901,0.2774,0.2774,0.2774,0,0.2,0.2066,0.2128,0.2191,0.2246,0.2329,0.2389,0.2443,0.2534,0.2573,0.2588,0.2678,0.2693,0.2752,0.2785,0.2781,0.2794,0.2776,0.2863,0.2873,0.2881,0.2897,0.2908,0.2778,0.2777,0.2777,0.2777,0,0.2049,0.2116,0.2157,0.225,0.2309,0.2382,0.246,0.2524,0.2588,0.2635,0.2726,0.2755,0.2809,0.2827,0.2828,0.2903,0.2892,0.2874,0.2835,0.2899,0.2912,0.2922,0.2784,0.2782,0.2781,0.278,0,0,0.2024,0.2161,0.2181,0.2228,0.2349,0.2396,0.2486,0.2577,0.2642,0.2721,0.2794,0.2862,0.2897,0.2913,0.2931,0.2963,0.3041,0.2954,0.2954,0.2969,0.3117,0.2931,0.2924,0.3045,0.3047,0.3049,0.3102,0,0.2052,0.2155,0.222,0.2314,0.2371,0.246,0.2526,0.2616,0.2697,0.2779,0.2842,0.2915,0.2923,0.2966,0.3006,0.304,0.307,0.3027,0.3055,0.3055,0.288,0.293,0.3055,0.311,0.3112,0.3113,0.3115,0,0.2075,0.2142,0.2238,0.2343,0.2379,0.2442,0.2565,0.2638,0.2764,0.2829,0.2923,0.2972,0.3061,0.3044,0.3138,0.3117,0.3128,0.3138,0.314,0.2945,0.2887,0.3031,0.3132,0.3131,0.3129,0.3128,0.3127,0,0.2014,0.2147,0.222,0.226,0.2392,0.2455,0.2533,0.2663,0.2734,0.2875,0.2943,0.3042,0.3113,0.3152,0.3198,0.3182,0.3275,0.3244,0.3083,0.307,0.319,0.3178,0.3292,0.3292,0.3292,0.3292,0.3292,0,0.1994,0.2056,0.2203,0.224,0.2323,0.2432,0.2536,0.2628,0.2766,0.2844,0.2973,0.3034,0.3149,0.3214,0.3226,0.3187,0.3302,0.3094,0.3071,0.3219,0.3211,0.3196,0.3185,0.3294,0.3293,0.3293,0.3293,0,0.1914,0.2018,0.2101,0.2248,0.23,0.2362,0.2529,0.2591,0.2749,0.2857,0.2907,0.3063,0.3143,0.3224,0.3291,0.3205,0.3191,0.3144,0.3308,0.3293,0.2955,0.2947,0.2955,0.2949,0.2944,0.294,0.2936,0,0.1877,0.1918,0.2083,0.2133,0.221,0.2325,0.2395,0.2563,0.2631,0.2842,0.2868,0.3015,0.3096,0.3041,0.3141,0.3141,0.3105,0.3068,0.2994,0.2944,0.2922,0.2922,0.292,0.2928,0.2926,0.2925,0.2924,0,0.1794,0.1874,0.194,0.2046,0.2134,0.2212,0.2333,0.2363,0.2547,0.2714,0.2753,0.2788,0.2874,0.2913,0.2941,0.2935,0.3073,0.3013,0.3023,0.2953,0.2911,0.2894,0.2899,0.2906,0.2908,0.291,0.2911,0,0.173,0.1753,0.1856,0.1928,0.2028,0.2063,0.2147,0.2217,0.23,0.2527,0.2532,0.269,0.2838,0.2808,0.2833,0.2816,0.2768,0.2658,0.2685,0.2706,0.26,0.2508,0.2361,0,0,0,0,0,0.1652,0.1664,0.1725,0.179,0.188,0.194,0.2081,0.2169,0.2349,0.2309,0.2412,0.2473,0.2508,0.2589,0.2523,0.2735,0.2788,0.2645,0.2678,0.2806,0.2827,0.2725,0,0,0,0,0,0,0.16,0.1655,0.1675,0.1656,0.1673,0.1752,0.1834,0.1961,0.1952,0.2142,0.2174,0.2314,0.2391,0.2516,0.247,0.2496,0.2463,0.2748,0.2741,0.2794,0.2813,0.283,0.2733,0,0,0,0,0]},{"header":{"parameterUnit":"m.s-1","parameterCategory":2,"la1":30.2991,"la2":30.254,"lo1":-89.0895,"lo2":-89.0444,"dy":0.0017,"dx":0.0017,"nx":28,"ny":28,"refTime":"2024-05-14T09:00:00:Z","depth":"4","parameterNumber":3,"parameterNumberName":"V-component_of_CURRENTS"},"data":[0,0,0,0,0,0,0,0,0,0,0,0,0,0,0,0,0,0,0,0,0,0,0,0,0,0,0,0,0,0,0,0,0,0,0,0,0,0,0,0,0,0,0,0,0,0,0,0,0,0,0,0,0,0,0,0,0,0,0.0252,0.0251,0,0.0151,0.015,0.0149,0.011,0.0111,0.0111,0.0112,0.0072,0.0071,0.007,0,0,0,0,0,0,0,0,0,0,0,0,0,0.0297,0.0297,0.0252,0.0251,0.0249,0.0151,0.015,0.0148,0.011,0.0111,0.0111,0.0112,0.0073,0.0071,0.007,0,0,0,0,0,0,0,0,0,0,0,0,0,0.0245,0.0297,0.0252,0.0219,0.0215,0.0152,0.015,0.0148,0.011,0.0111,0.0111,0.0112,0.0073,0.0071,0.0069,0.0045,0,0,0.0063,0.0062,0,0,0,0,0,0,0,0,0.0248,0.0243,0.0225,0.0221,0.0217,0.0145,0.0151,0.0117,0.011,0.0149,0.0112,0.0112,0.0102,0.0098,0.0076,0.0043,0.0041,0.0063,0.0061,0.0061,0.006,0,0,0,0,0,0,0,0.0252,0.0246,0.0211,0.0224,0.0219,0.0171,0.0165,0.0144,0.0124,0.0146,0.0143,0.0133,0.0101,0.0078,0.0075,0.0041,0.0063,0.0061,0.006,0.0059,0.0019,0.0019,0,0,0,0,0,0,0.0271,0.0251,0.0214,0.0208,0.0235,0.017,0.0163,0.0167,0.0123,0.0117,0.0133,0.0132,0.0081,0.0077,0.0073,0.0079,0.0061,0.0059,0.0057,0.0019,0.0019,0.0019,0,0,0,0,0,0,0.0273,0.027,0.0218,0.0227,0.0217,0.017,0.0173,0.0164,0.0145,0.0113,0.0107,0.0123,0.0081,0.0076,0.0065,0.0076,0.0058,0.0056,0.0019,0.0019,0.0019,0.0067,0,0,0,0,0,0,0.0275,0.0271,0.0278,0.0229,0.0217,0.0185,0.0172,0.0162,0.0138,0.0136,0.0103,0.0099,0.0081,0.0069,0.0063,0.0073,0.0054,0.0018,0.0019,0.0019,0.0065,0.0069,0.0072,0,0,0,0,0,0.0277,0.0281,0.0279,0.0274,0.023,0.0185,0.0174,0.0141,0.0138,0.0126,0.0113,0.01,0.0068,0.0067,0.0061,0.007,0.0018,0.0019,0.0019,0.0063,0.0068,0.0072,0,0,0,0,0,0,0.03,0.0276,0.0273,0.027,0.0235,0.0179,0.0163,0.0143,0.012,0.0124,0.01,0.0095,0.0089,0.0071,0.0071,0.0059,0.0042,0.0041,0.0077,0.0081,0.0085,0.0102,0.0052,0,0,0,0,0,0.0311,0.0312,0.0275,0.0272,0.0258,0.0213,0.0191,0.017,0.0141,0.013,0.0111,0.0095,0.0083,0.0077,0.0059,0.005,0.0028,0.0052,0.0055,0.0059,0.0068,0.0041,0.0043,0.0021,0.0021,0.0021,0,0,0.032,0.0306,0.0307,0.0277,0.0248,0.023,0.0201,0.017,0.0166,0.0132,0.0125,0.0104,0.0083,0.0076,0.0072,0.0064,0.0052,0.0059,0.0062,0.0069,0.0042,0.0044,0.0046,0.0021,0.0021,0.0021,0,0,0.0321,0.0325,0.0318,0.0297,0.0259,0.0239,0.0236,0.0189,0.018,0.0165,0.0147,0.0135,0.0109,0.0097,0.009,0.01,0.007,0.0094,0.0126,0.01,0.0102,0.0103,0.0073,0.0071,0.0097,0.0097,0.0097,0,0.0331,0.0328,0.0306,0.029,0.0286,0.0251,0.0246,0.0226,0.0185,0.0191,0.0174,0.0143,0.0121,0.0123,0.0126,0.0109,0.0087,0.0114,0.0105,0.0106,0.0107,0.0075,0.0073,0.0099,0.0099,0.0099,0.0098,0,0.032,0.0324,0.0317,0.0304,0.0294,0.0283,0.0264,0.0258,0.0251,0.0235,0.0231,0.0192,0.018,0.0166,0.015,0.0147,0.0128,0.0112,0.0098,0.0112,0.0077,0.0074,0.0103,0.0102,0.0101,0.01,0,0,0.033,0.0316,0.0316,0.033,0.031,0.0306,0.0312,0.0312,0.0333,0.0291,0.0307,0.0273,0.0253,0.0242,0.0212,0.0186,0.0164,0.0156,0.0154,0.0131,0.0104,0.0082,0.0076,0.0147,0.0147,0.0147,0.0076,0,0.0331,0.033,0.0323,0.0344,0.035,0.0347,0.0366,0.0367,0.0363,0.0368,0.033,0.0329,0.0282,0.028,0.0246,0.0191,0.0158,0.0185,0.0089,0.0086,0.007,0.0072,0.0146,0.0074,0.0073,0.0072,0.0072,0,0.0317,0.0331,0.0352,0.0396,0.0401,0.0416,0.0465,0.0475,0.0475,0.0472,0.0453,0.0417,0.0382,0.0334,0.0242,0.0262,0.019,0.0135,0.013,0.0094,0.0059,0.0056,0.0065,0.0065,0.0066,0.0066,0.0067,0,0.0338,0.0356,0.0391,0.0399,0.0433,0.0464,0.0492,0.051,0.0546,0.0539,0.0555,0.0493,0.0477,0.0377,0.0261,0.0254,0.0149,0.0123,0.0031,0.0028,0.0048,0.0048,0.0051,0.0052,0.0052,0.0052,0.0052,0,0.0342,0.037,0.0411,0.0431,0.0507,0.0513,0.0589,0.0603,0.0631,0.0685,0.0618,0.0628,0.0488,0.0409,0.0286,0.0152,0.0166,0.0039,0.0012,0.0068,0.0071,0.0045,0.0045,0.0049,0.005,0.005,0.0051,0,0.0347,0.0363,0.0419,0.0482,0.0514,0.0573,0.0664,0.0714,0.0733,0.0794,0.0797,0.0735,0.0631,0.0477,0.0314,0.0201,0.0062,0.0007,0.0082,0.0059,-0.005,-0.0047,-0.01,-0.0101,-0.0102,-0.0103,-0.0104,0,0.0342,0.0371,0.047,0.0524,0.0558,0.0648,0.0714,0.0763,0.0819,0.0862,0.0893,0.0812,0.0748,0.0511,0.0331,0.0086,0.0045,-0.0036,-0.005,-0.0042,-0.0064,-0.0059,-0.0054,-0.0106,-0.0106,-0.0106,-0.0106,0,0.0359,0.04,0.0458,0.0571,0.0654,0.0755,0.0849,0.0897,0.0961,0.0975,0.0979,0.0853,0.0732,0.0523,0.0331,0.0153,0.0011,-0.0049,-0.0048,-0.0062,-0.005,-0.007,-0.0064,-0.011,-0.011,-0.0109,-0.0109,0,0.0386,0.0435,0.052,0.0622,0.073,0.0836,0.0883,0.0954,0.1012,0.1048,0.1045,0.0911,0.083,0.0558,0.0384,0.0202,0.0146,0.0074,0.0067,0.0069,0.0128,0.0168,0.0156,0,0,0,0,0,0.0411,0.0472,0.0565,0.0682,0.0787,0.0856,0.0966,0.1003,0.1061,0.1075,0.1065,0.0951,0.0698,0.0589,0.0405,0.0338,0.0098,0.0112,0.0007,-0.0131,-0.0127,-0.009,0,0,0,0,0,0,0.0431,0.0517,0.0567,0.0714,0.0798,0.0925,0.1,0.1037,0.1045,0.1067,0.094,0.0886,0.0639,0.0807,0.0397,0.0342,0.0244,-0.0002,-0.0007,-0.0134,-0.013,-0.0126,-0.0086,0,0,0,0,0]}]]